[[{"header":{"parameterUnit":"m.s-1","parameterCategory":1,"la1":30.2991,"la2":30.254,"lo1":-89.0895,"lo2":-89.0444,"dy":0.0017,"dx":0.0017,"nx":28,"ny":28,"refTime":"2024-05-03T03:00:00:Z","depth":0,"parameterNumber":2,"parameterNumberName":"U-component_of_WINDS"},"data":[0,0,0,0,0,0,0,0,0,0,0,0,0,0,0,0,0,0,0,0,0,0,0,0,0,0,0,0,0,0,0,0,0,0,0,0,0,0,0,0,0,0,0,0,0,0,0,0,0,0,0,0,0,0,0,0,0,0,-1.2304,-1.2304,0,-1.2311,-1.2312,-1.2312,-1.2292,-1.2292,-1.2291,-1.2291,-1.2299,-1.2299,-1.23,0,0,0,0,0,0,0,0,0,0,0,0,0,-1.2275,-1.2275,-1.2304,-1.2304,-1.2304,-1.2311,-1.2312,-1.2312,-1.2292,-1.2292,-1.2291,-1.229,-1.2298,-1.2299,-1.23,0,0,0,0,0,0,0,0,0,0,0,0,0,-1.2285,-1.2275,-1.2304,-1.2295,-1.2295,-1.2311,-1.2312,-1.2312,-1.2293,-1.2292,-1.2291,-1.229,-1.2298,-1.2299,-1.23,-1.2326,0,0,-1.2304,-1.2304,0,0,0,0,0,0,0,0,-1.2285,-1.2286,-1.2297,-1.2296,-1.2295,-1.23,-1.2304,-1.2316,-1.2293,-1.2293,-1.2291,-1.229,-1.23,-1.2301,-1.2304,-1.2326,-1.2326,-1.2304,-1.2305,-1.2305,-1.2305,0,0,0,0,0,0,0,-1.2284,-1.2286,-1.2307,-1.2297,-1.2296,-1.2292,-1.2292,-1.2306,-1.2302,-1.2293,-1.2292,-1.2293,-1.2299,-1.2303,-1.2304,-1.2326,-1.2304,-1.2305,-1.2306,-1.2306,-1.2372,-1.2373,0,0,0,0,0,0,-1.2284,-1.2285,-1.2307,-1.2307,-1.2288,-1.2293,-1.2294,-1.2299,-1.2301,-1.2301,-1.2294,-1.2292,-1.2302,-1.2303,-1.2304,-1.2335,-1.2305,-1.2306,-1.2307,-1.2371,-1.2372,-1.2373,0,0,0,0,0,0,-1.2284,-1.2286,-1.2306,-1.2296,-1.2298,-1.2295,-1.2301,-1.23,-1.2304,-1.2302,-1.2301,-1.2299,-1.2301,-1.2303,-1.2321,-1.2335,-1.2307,-1.2308,-1.2369,-1.2371,-1.2372,-1.2397,0,0,0,0,0,0,-1.2283,-1.2286,-1.2295,-1.2296,-1.2299,-1.2322,-1.2302,-1.2301,-1.2306,-1.2304,-1.2306,-1.2305,-1.23,-1.2319,-1.2322,-1.2336,-1.2309,-1.2368,-1.237,-1.2372,-1.2395,-1.2399,-1.2403,0,0,0,0,0,-1.2282,-1.2301,-1.2296,-1.2298,-1.231,-1.2323,-1.2325,-1.2318,-1.2307,-1.2317,-1.2316,-1.2305,-1.2333,-1.2321,-1.2324,-1.2339,-1.2367,-1.2369,-1.2372,-1.2393,-1.2398,-1.2402,0,0,0,0,0,0,-1.2302,-1.2301,-1.2295,-1.2315,-1.232,-1.232,-1.2331,-1.2324,-1.2331,-1.2329,-1.2321,-1.2321,-1.2341,-1.2342,-1.2329,-1.2365,-1.2348,-1.2351,-1.2363,-1.2368,-1.2372,-1.2372,-1.231,0,0,0,0,0,-1.2309,-1.2319,-1.2318,-1.2336,-1.2339,-1.2335,-1.234,-1.2335,-1.2339,-1.2341,-1.2341,-1.2345,-1.2355,-1.2362,-1.2371,-1.2395,-1.2396,-1.2407,-1.2411,-1.2414,-1.2417,-1.2431,-1.2436,-1.2381,-1.2381,-1.2381,0,0,-1.2323,-1.2324,-1.233,-1.234,-1.2343,-1.2354,-1.2336,-1.2349,-1.2358,-1.2343,-1.236,-1.2361,-1.2365,-1.2387,-1.2396,-1.2388,-1.2433,-1.2417,-1.242,-1.2421,-1.2434,-1.2439,-1.2444,-1.2382,-1.2382,-1.2382,0,0,-1.2354,-1.2356,-1.2371,-1.2375,-1.2379,-1.2377,-1.2381,-1.2383,-1.2383,-1.24,-1.239,-1.24,-1.2417,-1.2421,-1.2425,-1.2461,-1.2452,-1.2464,-1.2485,-1.2499,-1.2503,-1.2507,-1.2521,-1.2526,-1.2467,-1.2467,-1.2467,0,-1.2371,-1.2387,-1.2381,-1.2394,-1.24,-1.2387,-1.2404,-1.2407,-1.2415,-1.2419,-1.241,-1.2432,-1.2434,-1.2457,-1.2466,-1.247,-1.2475,-1.2464,-1.2503,-1.2507,-1.2511,-1.2523,-1.2528,-1.2468,-1.2468,-1.2468,-1.2468,0,-1.2409,-1.242,-1.2433,-1.2441,-1.2447,-1.2462,-1.2459,-1.2466,-1.2461,-1.246,-1.2479,-1.2482,-1.2491,-1.2497,-1.2491,-1.252,-1.2515,-1.2505,-1.2488,-1.2517,-1.2529,-1.2534,-1.2471,-1.247,-1.247,-1.2469,0,0,-1.2452,-1.2457,-1.2461,-1.2465,-1.247,-1.2479,-1.2495,-1.2505,-1.2512,-1.2518,-1.2531,-1.2547,-1.2538,-1.2543,-1.2538,-1.2551,-1.258,-1.2539,-1.2539,-1.2547,-1.2613,-1.2621,-1.2626,-1.2575,-1.2576,-1.2576,-1.2613,0,-1.2483,-1.2509,-1.2505,-1.253,-1.2542,-1.2531,-1.2545,-1.255,-1.255,-1.256,-1.256,-1.2572,-1.2559,-1.2562,-1.2574,-1.2574,-1.2593,-1.2571,-1.2588,-1.2588,-1.2587,-1.2632,-1.264,-1.2674,-1.2617,-1.2618,-1.2619,0,-1.2524,-1.2531,-1.2558,-1.2563,-1.2567,-1.258,-1.2589,-1.2599,-1.2605,-1.2604,-1.2611,-1.2605,-1.2621,-1.2605,-1.2628,-1.2613,-1.262,-1.2621,-1.2622,-1.2624,-1.2605,-1.2635,-1.2685,-1.269,-1.2626,-1.2625,-1.2625,0,-1.2553,-1.2571,-1.2589,-1.2593,-1.2598,-1.2608,-1.261,-1.2615,-1.2622,-1.2631,-1.2636,-1.2646,-1.2652,-1.2661,-1.2658,-1.2646,-1.2682,-1.2665,-1.2683,-1.2683,-1.269,-1.269,-1.2742,-1.2694,-1.2694,-1.2694,-1.2694,0,-1.259,-1.2607,-1.2603,-1.2615,-1.2634,-1.2629,-1.2648,-1.265,-1.2655,-1.2667,-1.2659,-1.2671,-1.2666,-1.2678,-1.2676,-1.2696,-1.2699,-1.2699,-1.2699,-1.27,-1.27,-1.2704,-1.2702,-1.2695,-1.2695,-1.2695,-1.2695,0,-1.2626,-1.2624,-1.2644,-1.2648,-1.2649,-1.2663,-1.2667,-1.2679,-1.2678,-1.2694,-1.2698,-1.2698,-1.2712,-1.271,-1.2725,-1.2724,-1.2749,-1.2745,-1.2747,-1.2746,-1.2764,-1.2763,-1.2821,-1.2829,-1.2776,-1.2776,-1.2777,0,-1.2649,-1.2662,-1.2668,-1.2675,-1.2679,-1.2691,-1.2699,-1.2695,-1.2703,-1.2711,-1.2722,-1.2735,-1.2745,-1.2768,-1.277,-1.2782,-1.2779,-1.2799,-1.2781,-1.2783,-1.278,-1.278,-1.2782,-1.2802,-1.2803,-1.2803,-1.2804,0,-1.2691,-1.269,-1.27,-1.2711,-1.272,-1.2729,-1.2736,-1.2743,-1.274,-1.275,-1.2764,-1.2772,-1.2788,-1.2802,-1.2814,-1.2817,-1.2811,-1.2809,-1.2814,-1.2816,-1.2817,-1.2818,-1.2757,-1.2808,-1.2808,-1.2807,-1.2807,-1.2807,-1.2722,-1.2734,-1.274,-1.2753,-1.2758,-1.2765,-1.2777,-1.2778,-1.279,-1.2803,-1.28,-1.2816,-1.2824,-1.2839,-1.2844,-1.2857,-1.285,-1.2857,-1.2859,-1.2861,-1.2863,-1.2815,-1.2859,-1.2859,-1.2859,-1.2859,-1.2859,0,-1.2765,-1.2768,-1.278,-1.2791,-1.2801,-1.2794,-1.2802,-1.2812,-1.2826,-1.2833,-1.2844,-1.2861,-1.2875,-1.2878,-1.2891,-1.2901,-1.2899,-1.2905,-1.2904,-1.2906,-1.2868,-1.2863,-1.2907,-1.2907,-1.2907,-1.2907,-1.2907,-1.2907,-1.2788,-1.2808,-1.2807,-1.283,-1.2834,-1.285,-1.2855,-1.2863,-1.2869,-1.2888,-1.2899,-1.2901,-1.2908,-1.2922,-1.2934,-1.2935,-1.2941,-1.2948,-1.2948,-1.2913,-1.2908,-1.2904,-1.2899,-1.2949,-1.2949,-1.2984,-1.2985,-1.2985]},{"header":{"parameterUnit":"m.s-1","parameterCategory":1,"la1":30.2991,"la2":30.254,"lo1":-89.0895,"lo2":-89.0444,"dy":0.0017,"dx":0.0017,"nx":28,"ny":28,"refTime":"2024-05-03T03:00:00:Z","depth":0,"parameterNumber":3,"parameterNumberName":"V-component_of_WINDS"},"data":[0,0,0,0,0,0,0,0,0,0,0,0,0,0,0,0,0,0,0,0,0,0,0,0,0,0,0,0,0,0,0,0,0,0,0,0,0,0,0,0,0,0,0,0,0,0,0,0,0,0,0,0,0,0,0,0,0,0,3.3151,3.3151,0,3.3147,3.3147,3.3147,3.3157,3.3157,3.3158,3.3158,3.315,3.3149,3.3148,0,0,0,0,0,0,0,0,0,0,0,0,0,3.3165,3.3164,3.3151,3.3151,3.3151,3.3147,3.3147,3.3147,3.3157,3.3157,3.3158,3.3158,3.315,3.3149,3.3148,0,0,0,0,0,0,0,0,0,0,0,0,0,3.3159,3.3164,3.3151,3.3156,3.3156,3.3147,3.3147,3.3147,3.3157,3.3157,3.3158,3.3158,3.315,3.3149,3.3148,3.3133,0,0,3.3146,3.3146,0,0,0,0,0,0,0,0,3.316,3.3159,3.3155,3.3155,3.3156,3.3153,3.3149,3.3142,3.3157,3.3156,3.3158,3.3159,3.315,3.3149,3.3147,3.3133,3.3132,3.3146,3.3145,3.3145,3.3145,0,0,0,0,0,0,0,3.316,3.3159,3.3149,3.3155,3.3155,3.3157,3.3157,3.3147,3.315,3.3156,3.3157,3.3157,3.315,3.3148,3.3147,3.3132,3.3146,3.3145,3.3145,3.3144,3.3107,3.3107,0,0,0,0,0,0,3.316,3.3159,3.3149,3.3149,3.3159,3.3156,3.3156,3.3153,3.315,3.3151,3.3156,3.3157,3.3149,3.3148,3.3147,3.313,3.3145,3.3144,3.3144,3.3108,3.3107,3.3106,0,0,0,0,0,0,3.3161,3.3159,3.3149,3.3154,3.3153,3.3156,3.3152,3.3153,3.3151,3.315,3.3151,3.3154,3.3149,3.3148,3.3137,3.313,3.3144,3.3143,3.3108,3.3107,3.3107,3.3096,0,0,0,0,0,0,3.3161,3.3159,3.3154,3.3154,3.3153,3.314,3.3152,3.3152,3.315,3.3151,3.3148,3.3148,3.315,3.3138,3.3136,3.3129,3.3142,3.3109,3.3108,3.3107,3.3097,3.3095,3.3093,0,0,0,0,0,3.3161,3.315,3.3154,3.3152,3.3147,3.314,3.3139,3.3143,3.3149,3.3144,3.3144,3.3148,3.3131,3.3137,3.3135,3.3127,3.3109,3.3108,3.3107,3.3098,3.3095,3.3093,0,0,0,0,0,0,3.3146,3.315,3.3154,3.3142,3.3141,3.3142,3.3135,3.314,3.3135,3.3136,3.314,3.3139,3.3128,3.3126,3.3133,3.3114,3.3121,3.312,3.3115,3.3113,3.3111,3.3111,3.3142,0,0,0,0,0,3.3142,3.3138,3.314,3.313,3.3129,3.3132,3.3129,3.3133,3.3131,3.313,3.3129,3.3126,3.312,3.3116,3.3111,3.3097,3.3097,3.3091,3.3089,3.3087,3.3086,3.308,3.3077,3.3103,3.3103,3.3103,0,0,3.3132,3.3134,3.313,3.3127,3.3126,3.3121,3.3131,3.3125,3.3121,3.3128,3.3119,3.3118,3.3115,3.3104,3.3098,3.3102,3.3079,3.3086,3.3085,3.3084,3.3078,3.3076,3.3074,3.3102,3.3102,3.3102,0,0,3.3112,3.3113,3.3105,3.3105,3.3105,3.3107,3.3106,3.3106,3.3107,3.3098,3.3104,3.3098,3.3088,3.3086,3.3084,3.3066,3.307,3.3064,3.3054,3.3048,3.3046,3.3044,3.3039,3.3037,3.3062,3.3062,3.3062,0,3.31,3.3094,3.31,3.3094,3.3093,3.3101,3.3093,3.3092,3.3089,3.3088,3.3093,3.3082,3.308,3.3069,3.3065,3.3062,3.306,3.3064,3.3046,3.3045,3.3043,3.3038,3.3036,3.3062,3.3062,3.3062,3.3062,0,3.3079,3.3075,3.3068,3.3068,3.3066,3.3059,3.3063,3.306,3.3064,3.3066,3.3057,3.3056,3.3052,3.3049,3.3052,3.3039,3.3041,3.3046,3.3054,3.304,3.3035,3.3033,3.3061,3.3061,3.3061,3.3061,0,0,3.3048,3.3054,3.3051,3.3052,3.3054,3.305,3.3043,3.3041,3.3038,3.3036,3.3031,3.3024,3.3029,3.3026,3.3029,3.3024,3.3011,3.303,3.303,3.3027,3.2998,3.2995,3.2992,3.3014,3.3014,3.3014,3.2999,0,3.303,3.3021,3.3027,3.3016,3.3013,3.3022,3.3017,3.3017,3.3019,3.3015,3.3017,3.3012,3.3019,3.3017,3.3013,3.3014,3.3006,3.3015,3.3009,3.3009,3.301,3.299,3.2986,3.2971,3.2997,3.2996,3.2996,0,3.3006,3.3006,3.2996,3.3,3.2999,3.2994,3.2993,3.299,3.299,3.2992,3.2991,3.2995,3.2989,3.2997,3.2989,3.2995,3.2993,3.2994,3.2993,3.2993,3.3002,3.2989,3.2967,3.2965,3.2993,3.2993,3.2993,0,3.2987,3.2983,3.2978,3.2978,3.2982,3.2979,3.298,3.2981,3.298,3.2979,3.2978,3.2975,3.2974,3.2971,3.2975,3.2981,3.2967,3.2975,3.2968,3.2968,3.2964,3.2964,3.2942,3.2962,3.2962,3.2962,3.2962,0,3.2965,3.2959,3.2969,3.2965,3.2959,3.2966,3.2959,3.2961,3.2962,3.2959,3.2966,3.2962,3.2967,3.2964,3.2967,3.296,3.2959,3.296,3.2961,3.296,3.296,3.2958,3.296,3.2962,3.2962,3.2962,3.2962,0,3.2942,3.2948,3.2943,3.2948,3.2949,3.2944,3.2949,3.2945,3.2949,3.2944,3.2943,3.2948,3.2945,3.2949,3.2945,3.2947,3.2938,3.294,3.2939,3.294,3.2933,3.2934,3.2909,3.2906,3.2928,3.2928,3.2928,0,3.2928,3.2924,3.293,3.2929,3.2931,3.2929,3.2928,3.2935,3.2934,3.2936,3.2932,3.293,3.2929,3.2923,3.2926,3.2923,3.2926,3.2917,3.2925,3.2925,3.2926,3.2927,3.2927,3.2915,3.2915,3.2915,3.2915,0,3.2903,3.2907,3.2907,3.2908,3.2908,3.2909,3.291,3.2909,3.2916,3.2915,3.2913,3.2912,3.291,3.2908,3.2907,3.2907,3.2912,3.2912,3.2911,3.291,3.2909,3.291,3.2935,3.2913,3.2913,3.2913,3.2913,3.2913,3.2884,3.2882,3.2886,3.2886,3.2889,3.289,3.2888,3.2892,3.2891,3.2891,3.2895,3.2892,3.2894,3.2893,3.2894,3.2891,3.2895,3.2892,3.2892,3.2891,3.289,3.291,3.2891,3.2891,3.2891,3.2891,3.2891,0,3.2861,3.2865,3.2865,3.2868,3.2868,3.2875,3.2877,3.2876,3.2874,3.2876,3.2876,3.2874,3.2872,3.2876,3.2875,3.2872,3.2874,3.2872,3.2872,3.2872,3.2887,3.2889,3.287,3.287,3.287,3.287,3.287,3.287,3.2849,3.2845,3.285,3.2848,3.2851,3.285,3.2851,3.2853,3.2855,3.2853,3.2853,3.2855,3.2858,3.2858,3.2856,3.2857,3.2857,3.2853,3.2855,3.2869,3.2871,3.2873,3.2875,3.2853,3.2853,3.2841,3.284,3.284]}]]